Starlink 11552

operational
NORAD ID: 62907 Int'l Des: 2025-027 Owner: SPXS Country: US Constellation: starlink
LEOCIRCULAR

Starlink 11552について

説明を読み込み中...

リアルタイム位置

3D地球を読み込み中...

次回通過

高度履歴

Altitude vs Time

uPlot chart will show altitude changes over time

軌道要素

1 62907U 25027A 25257.45473982 .00214155 00000-0 16283-2 0 9993
2 62907 42.9987 330.0694 0002188 290.1450 69.9183 15.70861221 35478
Epoch: Sep 14, 2025 • Age: 20 hours

現在のステータス

高度 359.8 km
速度 7.70 km/s
衛星直下点 43.07°N, 50.88°W
打ち上げ日 Feb 8, 2025
運用期間 0.5 years
タイプ internet

技術仕様

分類 Payload
質量 960.00 kg
乾燥質量 910.00 kg
総質量 960.00 kg
長さ 0.30 m
直径 4.10 m
スパン 29.00 m
形状 Box + pan
製造者 SPXS
バスタイプ Starlink V2MD
フェーズステータス In Orbit
所有者/国 SPXS/US

大規模コンステレーション

Loading constellations...